TimeEST,TemperatureF,Dew PointF,Humidity,Sea Level PressureIn,VisibilityMPH,Wind Direction,Wind SpeedMPH,Gust SpeedMPH,PrecipitationIn,Events,Conditions,WindDirDegrees,DateUTC
12:06 AM,8.6,3.2,79,30.35,7.0,WNW,3.5,-,N/A,,Overcast,290,2013-02-09 05:06:00
12:20 AM,6.8,3.2,85,30.36,10.0,West,4.6,-,N/A,,Mostly Cloudy,270,2013-02-09 05:20:00
12:27 AM,3.2,1.4,92,30.37,10.0,West,3.5,-,N/A,,Scattered Clouds,260,2013-02-09 05:27:00
12:54 AM,3.9,1.0,88,30.43,5.0,Calm,Calm,-,N/A,,Mostly Cloudy,0,2013-02-09 05:54:00
1:54 AM,5.0,1.0,84,30.42,4.0,Calm,Calm,-,0.00,,Overcast,0,2013-02-09 06:54:00
2:02 AM,3.2,-0.4,85,30.37,5.0,Calm,Calm,-,N/A,,Overcast,0,2013-02-09 07:02:00
2:20 AM,1.4,-0.4,92,30.37,10.0,Calm,Calm,-,N/A,,Scattered Clouds,0,2013-02-09 07:20:00
2:54 AM,-2.0,-6.0,83,30.43,10.0,West,3.5,-,N/A,,Clear,270,2013-02-09 07:54:00
3:54 AM,-2.9,-8.0,79,30.43,10.0,Calm,Calm,-,N/A,,Clear,0,2013-02-09 08:54:00
4:54 AM,-5.1,-9.0,83,30.45,10.0,West,3.5,-,N/A,,Clear,260,2013-02-09 09:54:00
5:54 AM,-6.0,-9.9,83,30.45,10.0,Calm,Calm,-,N/A,,Clear,0,2013-02-09 10:54:00
6:54 AM,-9.0,-14.1,79,30.45,10.0,Calm,Calm,-,N/A,,Clear,0,2013-02-09 11:54:00
7:26 AM,-7.6,-11.2,84,30.42,10.0,Calm,Calm,-,N/A,,Mostly Cloudy,0,2013-02-09 12:26:00
7:54 AM,-7.1,-11.9,79,30.48,3.0,Calm,Calm,-,N/A,,Haze,0,2013-02-09 12:54:00
8:06 AM,-7.6,-9.4,92,30.41,4.0,Calm,Calm,-,N/A,,Overcast,0,2013-02-09 13:06:00
8:54 AM,-0.0,-2.9,88,30.48,5.0,West,3.5,-,N/A,,Partly Cloudy,260,2013-02-09 13:54:00
9:54 AM,3.9,-0.0,84,30.48,10.0,Calm,Calm,-,0.00,,Clear,0,2013-02-09 14:54:00
10:54 AM,12.0,6.1,77,30.45,10.0,Calm,Calm,-,N/A,,Clear,0,2013-02-09 15:54:00
11:54 AM,21.0,14.0,74,30.44,10.0,South,6.9,-,N/A,,Clear,180,2013-02-09 16:54:00
12:54 PM,23.0,16.0,74,30.41,10.0,SSE,8.1,-,N/A,,Clear,160,2013-02-09 17:54:00
1:54 PM,25.0,15.1,66,30.37,10.0,South,10.4,-,N/A,,Clear,180,2013-02-09 18:54:00
2:54 PM,27.0,15.1,61,30.36,10.0,South,5.8,-,N/A,,Clear,180,2013-02-09 19:54:00
3:54 PM,27.0,14.0,58,30.35,10.0,South,8.1,-,N/A,,Clear,190,2013-02-09 20:54:00
4:54 PM,26.1,14.0,60,30.34,10.0,SSE,8.1,-,N/A,,Clear,160,2013-02-09 21:54:00
5:54 PM,24.1,15.1,69,30.32,10.0,SSE,10.4,-,N/A,,Clear,150,2013-02-09 22:54:00
6:54 PM,21.0,14.0,74,30.33,10.0,SSE,8.1,-,N/A,,Clear,150,2013-02-09 23:54:00
7:54 PM,18.0,12.9,81,30.32,10.0,SSE,9.2,-,N/A,,Clear,150,2013-02-10 00:54:00
8:54 PM,15.1,10.9,84,30.31,10.0,SSE,8.1,-,N/A,,Clear,160,2013-02-10 01:54:00
9:54 PM,12.9,9.0,84,30.30,10.0,SSE,5.8,-,N/A,,Clear,160,2013-02-10 02:54:00
10:54 PM,14.0,10.9,88,30.28,10.0,Calm,Calm,-,N/A,,Clear,0,2013-02-10 03:54:00
11:54 PM,10.0,8.1,92,30.27,9.0,Calm,Calm,-,N/A,,Overcast,0,2013-02-10 04:54:00